AMX256 MMOX-MMAA

Flight info

Callsign AMX256
Flight time 0h 35m
Altitude 28000
Route OAX3B OAX DCT OTSUT DCT MEMDI DCT AMIDI DCT SELIS DCT ACA DCT
Aircraft E190/M-SDE3GILORVW/S

Departure

Time 2026-04-22 11:18
Airport Xoxocotlán International Airport (MMOX)

Arrival

Time 2026-04-22 11:53
Airport General Juan N. Álvarez International Airport (MMAA)
Time Latitude Longitude Altitude Speed Heading
2026-04-22 11:00 17.00098 -96.72266 4993 ft 0 kts 105°
2026-04-22 11:11 17.00101 -96.72280 4993 ft 4 kts 101°
2026-04-22 11:11 17.00104 -96.72307 4993 ft 4 kts 81°
2026-04-22 11:11 17.00095 -96.72331 4993 ft 4 kts 31°
2026-04-22 11:11 17.00089 -96.72335 4993 ft 3 kts 15°
2026-04-22 11:16 17.00112 -96.72328 4993 ft 7 kts 15°
2026-04-22 11:16 17.00170 -96.72312 4993 ft 9 kts 15°
2026-04-22 11:16 17.00237 -96.72291 4993 ft 11 kts 16°
2026-04-22 11:16 17.00288 -96.72329 4991 ft 12 kts 285°
2026-04-22 11:17 17.00315 -96.72431 4986 ft 10 kts 287°
2026-04-22 11:17 17.00306 -96.72468 4985 ft 7 kts 227°
2026-04-22 11:17 17.00289 -96.72475 4985 ft 0 kts 194°
2026-04-22 11:17 17.00125 -96.72522 4986 ft 63 kts 197°
2026-04-22 11:18 16.99441 -96.72721 4993 ft 139 kts 195°
2026-04-22 11:18 16.98337 -96.73044 5282 ft 184 kts 195°
2026-04-22 11:18 16.96995 -96.73360 6051 ft 210 kts 191°
2026-04-22 11:18 16.95475 -96.73661 6893 ft 230 kts 191°
2026-04-22 11:19 16.93828 -96.74005 7710 ft 256 kts 193°
2026-04-22 11:19 16.92017 -96.74479 8346 ft 286 kts 194°
2026-04-22 11:19 16.90052 -96.74988 9405 ft 295 kts 194°
2026-04-22 11:19 16.88062 -96.75509 10520 ft 309 kts 194°
2026-04-22 11:20 16.85920 -96.76069 11416 ft 325 kts 194°
2026-04-22 11:20 16.83708 -96.76644 12502 ft 331 kts 194°
2026-04-22 11:20 16.81451 -96.77233 13581 ft 337 kts 194°
2026-04-22 11:20 16.79154 -96.77812 14634 ft 344 kts 191°
2026-04-22 11:21 16.76758 -96.77821 15667 ft 350 kts 166°
2026-04-22 11:21 16.74539 -96.76783 16715 ft 352 kts 144°
2026-04-22 11:21 16.72810 -96.74980 17708 ft 354 kts 123°
2026-04-22 11:21 16.71819 -96.72645 18619 ft 355 kts 102°
2026-04-22 11:22 16.71685 -96.70074 19454 ft 358 kts 82°
2026-04-22 11:22 16.72414 -96.67585 20220 ft 362 kts 64°
2026-04-22 11:22 16.73451 -96.65210 20937 ft 368 kts 60°
2026-04-22 11:22 16.75151 -96.63205 21596 ft 374 kts 35°
2026-04-22 11:23 16.77520 -96.62066 22272 ft 381 kts 15°
2026-04-22 11:23 16.80169 -96.61841 22905 ft 387 kts 354°
2026-04-22 11:23 16.82772 -96.62597 23528 ft 393 kts 334°
2026-04-22 11:23 16.84995 -96.64269 24101 ft 399 kts 313°
2026-04-22 11:24 16.86520 -96.66686 24703 ft 402 kts 292°
2026-04-22 11:24 16.87293 -96.69492 25308 ft 403 kts 282°
2026-04-22 11:24 16.87901 -96.72359 25902 ft 406 kts 283°
2026-04-22 11:24 16.88533 -96.75238 26480 ft 407 kts 282°
2026-04-22 11:25 16.89163 -96.78129 27023 ft 410 kts 282°
2026-04-22 11:25 16.89765 -96.81039 27561 ft 410 kts 281°
2026-04-22 11:25 16.90344 -96.83967 28046 ft 412 kts 281°
2026-04-22 11:25 16.90889 -96.86958 28039 ft 425 kts 279°
2026-04-22 11:26 16.91398 -96.90045 28051 ft 435 kts 279°
2026-04-22 11:26 16.92397 -96.96330 28107 ft 446 kts 278°
2026-04-22 11:27 16.93361 -97.02783 28056 ft 452 kts 278°
2026-04-22 11:27 16.93817 -97.06031 27987 ft 452 kts 275°
2026-04-22 11:27 16.93869 -97.09308 27994 ft 453 kts 267°
2026-04-22 11:27 16.93693 -97.12604 27962 ft 454 kts 266°
2026-04-22 11:28 16.93529 -97.15894 27965 ft 454 kts 266°
2026-04-22 11:28 16.93361 -97.19184 27968 ft 454 kts 266°
2026-04-22 11:28 16.93190 -97.22486 27980 ft 458 kts 266°
2026-04-22 11:28 16.93016 -97.25836 27977 ft 464 kts 266°
2026-04-22 11:29 16.92838 -97.29225 27979 ft 468 kts 266°
2026-04-22 11:29 16.92657 -97.32626 27969 ft 471 kts 266°
2026-04-22 11:29 16.92476 -97.36051 27940 ft 473 kts 266°
2026-04-22 11:29 16.92298 -97.39445 27902 ft 475 kts 266°
2026-04-22 11:30 16.92115 -97.42854 27878 ft 469 kts 266°
2026-04-22 11:30 16.91932 -97.46251 27893 ft 468 kts 266°
2026-04-22 11:30 16.91748 -97.49646 27893 ft 469 kts 266°
2026-04-22 11:30 16.91562 -97.53048 27893 ft 469 kts 266°
2026-04-22 11:31 16.91377 -97.56448 27893 ft 469 kts 266°
2026-04-22 11:31 16.91193 -97.59846 27887 ft 469 kts 266°
2026-04-22 11:31 16.91005 -97.63249 27884 ft 469 kts 266°
2026-04-22 11:31 16.90820 -97.66643 27874 ft 469 kts 266°
2026-04-22 11:32 16.90632 -97.70041 27849 ft 469 kts 266°
2026-04-22 11:32 16.90445 -97.73441 27847 ft 469 kts 266°
2026-04-22 11:32 16.90256 -97.76838 27855 ft 468 kts 266°
2026-04-22 11:32 16.90066 -97.80237 27855 ft 468 kts 266°
2026-04-22 11:33 16.89878 -97.83638 27887 ft 466 kts 266°
2026-04-22 11:33 16.89688 -97.87031 27925 ft 465 kts 266°
2026-04-22 11:33 16.89458 -97.90418 27899 ft 463 kts 265°
2026-04-22 11:33 16.89223 -97.93748 27899 ft 463 kts 266°
2026-04-22 11:34 16.88991 -97.97126 27925 ft 463 kts 265°
2026-04-22 11:34 16.88738 -98.00503 27946 ft 469 kts 265°
2026-04-22 11:34 16.88476 -98.03883 27845 ft 468 kts 265°
2026-04-22 11:34 16.88254 -98.07283 27948 ft 465 kts 266°
2026-04-22 11:35 16.88028 -98.10665 27928 ft 471 kts 266°
2026-04-22 11:35 16.87790 -98.14034 28134 ft 467 kts 265°
2026-04-22 11:35 16.87559 -98.17426 28088 ft 467 kts 266°
2026-04-22 11:36 16.87100 -98.24233 28040 ft 470 kts 266°
2026-04-22 11:36 16.86628 -98.31055 28042 ft 471 kts 266°
2026-04-22 11:37 16.86150 -98.37846 28021 ft 473 kts 266°
2026-04-22 11:37 16.85664 -98.44691 28001 ft 473 kts 266°
2026-04-22 11:37 16.85419 -98.48110 27994 ft 470 kts 266°
2026-04-22 11:38 16.85178 -98.51470 28018 ft 461 kts 266°
2026-04-22 11:38 16.84943 -98.54739 27980 ft 442 kts 266°
2026-04-22 11:38 16.84487 -98.61056 27638 ft 434 kts 266°
2026-04-22 11:39 16.84261 -98.64174 27228 ft 429 kts 266°
2026-04-22 11:39 16.84035 -98.67278 26601 ft 426 kts 266°
2026-04-22 11:39 16.83812 -98.70340 26001 ft 421 kts 265°
2026-04-22 11:39 16.83591 -98.73373 25436 ft 416 kts 265°
2026-04-22 11:40 16.83370 -98.76369 24848 ft 412 kts 266°
2026-04-22 11:40 16.83153 -98.79329 24312 ft 407 kts 266°
2026-04-22 11:40 16.82937 -98.82267 23768 ft 405 kts 266°
2026-04-22 11:40 16.82722 -98.85198 23218 ft 403 kts 266°
2026-04-22 11:41 16.82508 -98.88102 22687 ft 399 kts 266°
2026-04-22 11:41 16.82295 -98.90979 22160 ft 396 kts 266°
2026-04-22 11:41 16.82085 -98.93836 21626 ft 393 kts 266°
2026-04-22 11:41 16.81878 -98.96633 20800 ft 393 kts 266°
2026-04-22 11:42 16.81665 -98.99534 19511 ft 404 kts 266°
2026-04-22 11:42 16.81448 -99.02435 18220 ft 395 kts 266°
2026-04-22 11:42 16.81240 -99.05247 16880 ft 383 kts 266°
2026-04-22 11:42 16.80957 -99.07973 15510 ft 373 kts 261°
2026-04-22 11:43 16.80466 -99.10607 14078 ft 366 kts 260°
2026-04-22 11:43 16.80003 -99.13194 12626 ft 360 kts 260°
2026-04-22 11:43 16.79558 -99.15749 11157 ft 356 kts 261°
2026-04-22 11:43 16.79141 -99.18148 11404 ft 306 kts 260°
2026-04-22 11:44 16.78779 -99.20248 12662 ft 289 kts 261°
2026-04-22 11:44 16.78427 -99.22299 12687 ft 283 kts 261°
2026-04-22 11:44 16.78087 -99.24285 12488 ft 274 kts 261°
2026-04-22 11:44 16.77754 -99.26215 12267 ft 267 kts 261°
2026-04-22 11:45 16.77431 -99.28100 12022 ft 262 kts 261°
2026-04-22 11:45 16.77117 -99.29954 11757 ft 258 kts 261°
2026-04-22 11:45 16.76805 -99.31782 11480 ft 254 kts 261°
2026-04-22 11:45 16.76496 -99.33589 11200 ft 251 kts 261°
2026-04-22 11:46 16.76191 -99.35379 10892 ft 250 kts 261°
2026-04-22 11:46 16.75892 -99.37127 10499 ft 246 kts 261°
2026-04-22 11:46 16.75594 -99.38879 10050 ft 244 kts 260°
2026-04-22 11:46 16.75298 -99.40618 9595 ft 242 kts 260°
2026-04-22 11:47 16.75003 -99.42343 9134 ft 241 kts 260°
2026-04-22 11:47 16.74711 -99.44062 8646 ft 240 kts 260°
2026-04-22 11:47 16.74418 -99.45777 8141 ft 240 kts 260°
2026-04-22 11:47 16.74223 -99.46919 7780 ft 241 kts 260°
2026-04-22 11:48 16.73920 -99.48682 7176 ft 253 kts 260°
2026-04-22 11:48 16.73605 -99.50516 6560 ft 260 kts 260°
2026-04-22 11:48 16.73286 -99.52383 5948 ft 261 kts 260°
2026-04-22 11:48 16.72973 -99.54224 5338 ft 254 kts 260°
2026-04-22 11:49 16.72655 -99.56030 4588 ft 256 kts 259°
2026-04-22 11:49 16.72169 -99.57771 4122 ft 238 kts 246°
2026-04-22 11:49 16.71519 -99.59214 3981 ft 208 kts 245°
2026-04-22 11:49 16.71110 -99.60639 3269 ft 208 kts 266°
2026-04-22 11:50 16.71288 -99.62076 2760 ft 194 kts 288°
2026-04-22 11:50 16.71911 -99.63282 2293 ft 183 kts 300°
2026-04-22 11:50 16.72374 -99.64526 1600 ft 187 kts 282°
2026-04-22 11:50 16.72648 -99.65702 1598 ft 151 kts 286°
2026-04-22 11:51 16.73009 -99.66700 1347 ft 141 kts 289°
2026-04-22 11:51 16.73301 -99.67648 1164 ft 134 kts 285°
2026-04-22 11:51 16.73571 -99.68575 996 ft 133 kts 285°
2026-04-22 11:51 16.73853 -99.69520 840 ft 139 kts 288°
2026-04-22 11:52 16.74166 -99.70471 716 ft 138 kts 288°
2026-04-22 11:52 16.74457 -99.71404 516 ft 136 kts 288°
2026-04-22 11:52 16.74749 -99.72335 301 ft 134 kts 288°
2026-04-22 11:52 16.75042 -99.73249 89 ft 132 kts 288°
2026-04-22 11:53 16.75314 -99.74116 18 ft 112 kts 288°
2026-04-22 11:53 16.75524 -99.74782 17 ft 80 kts 289°
2026-04-22 11:53 16.75665 -99.75236 18 ft 57 kts 288°
2026-04-22 11:53 16.75762 -99.75544 20 ft 23 kts 288°
2026-04-22 11:54 16.75837 -99.75588 20 ft 15 kts 38°
2026-04-22 11:54 16.75888 -99.75478 17 ft 19 kts 68°
2026-04-22 11:54 16.75966 -99.75412 16 ft 15 kts 359°
2026-04-22 11:54 16.76019 -99.75502 16 ft 16 kts 289°
2026-04-22 11:55 16.76048 -99.75574 16 ft 8 kts 319°
2026-04-22 11:55 16.76107 -99.75568 16 ft 10 kts 19°
2026-04-22 11:55 16.76145 -99.75555 17 ft 1 kts 18°
2026-04-22 11:55 16.76146 -99.75555 16 ft 0 kts 18°